Home   Weather   Charlotte   Past weeks

Flag for USA Past Weather in Charlotte, North Carolina, USA — Yesterday and Last 2 Weeks

Now
74 °F

Overcast.


Feels Like: 74 °F
Forecast: 69 / 83 °F
Wind: 9 mph from East

Location: Charlotte / Douglas International Airport

Current Time: Sep 26, 2016 at 1:34:45 AM

Latest Report: Sep 26, 2016 at 12:52 AM


Visibility: 10 mi

Pressure: 30.10 "Hg

Humidity: 82%

Dew Point: 68 °F

Location of CharlotteLocation

Past Weather in Charlotte — Graph

°F

Charlotte Temperature Yesterday

Maximum temperature yesterday: 89 °F (at 2:52 PM)
Minimum temperature yesterday: 66 °F (at 5:52 AM)
Average temperature yesterday: 78 °F

High & Low Weather Summary for the Past Weeks

 TemperatureHumidityPressure
High93 °F (Sep 24, 2:52 PM)97% (Sep 14, 4:52 AM)30.23 "Hg (Sep 14, 4:52 AM)
Low65 °F (Sep 24, 2:52 AM)32% (Sep 24, 3:52 PM)29.90 "Hg (Sep 19, 4:52 PM)
Average77 °F67%30.07 "Hg
* Reported Sep 10 11:52 PM — Sep 25 11:52 PM, Charlotte, Weather by CustomWeather, © 2016

Note: Actual official high and low records may vary slightly from our data, if they occured in-between our weather recording intervals... More about our weather records

Advertising

Charlotte Weather History for the Previous 24 Hours

Scroll right to see more
 ConditionsComfort  
Time TempWeatherWind HumidityBarometerVisibility
11:52 PM
Sun, Sep 25
75 °FOvercast.10 mph82%30.10 "Hg10 mi
10:57 PM77 °FPassing clouds.14 mph77%30.12 "Hg10 mi
9:52 PM80 °FMostly cloudy.8 mph67%30.09 "Hg10 mi
8:52 PM81 °FPassing clouds.10 mph65%30.07 "Hg10 mi
7:52 PM82 °FPartly cloudy.10 mph63%30.05 "Hg10 mi
6:52 PM84 °FScattered clouds.8 mph57%30.03 "Hg10 mi
5:52 PM85 °FScattered clouds.10 mph55%30.03 "Hg10 mi
4:52 PM88 °FScattered clouds.7 mph50%30.03 "Hg10 mi
3:52 PM88 °FScattered clouds.7 mph46%30.03 "Hg10 mi
2:52 PM89 °FScattered clouds.3 mph46%30.06 "Hg10 mi
1:52 PM85 °FScattered clouds.No wind53%30.09 "Hg10 mi
12:52 PM85 °FScattered clouds.5 mph55%30.10 "Hg10 mi
11:52 AM83 °FPassing clouds.No wind57%30.11 "Hg10 mi
10:52 AM80 °FPassing clouds.No wind64%30.11 "Hg10 mi
9:52 AM78 °FSunny.6 mph69%30.11 "Hg10 mi
8:52 AM74 °FPassing clouds.8 mph79%30.11 "Hg10 mi
7:52 AM71 °FPassing clouds.3 mph81%30.10 "Hg10 mi
6:52 AM71 °FPassing clouds.No wind78%30.08 "Hg10 mi
5:52 AM66 °FPassing clouds.5 mph90%30.07 "Hg10 mi
4:52 AM69 °FPassing clouds.No wind84%30.06 "Hg10 mi
3:52 AM71 °FPassing clouds.No wind81%30.05 "Hg10 mi
2:52 AM71 °FPassing clouds.3 mph81%30.05 "Hg10 mi
1:52 AM70 °FClear.No wind84%30.05 "Hg10 mi
Weather by CustomWeather, © 2016

See weather overviewHow to use our weather pages